Weather History for KHCO - December, 2012

Change the Weather History Date:

Thursday, December 13, 2012

  Actual Average Record
Temperature  
Mean Temperature 8 °F -  
Max Temperature 17 °F 18 °F 42 °F (1999)
Min Temperature 0 °F -1 °F -26 °F (1958)
Degree Days  
Heating Degree Days 56    
Moisture  
Dew Point 3 °F    
Average Humidity 84    
Maximum Humidity 93    
Minimum Humidity 78    
Precipitation  
Precipitation 0.00 in - - ()
Sea Level Pressure  
Sea Level Pressure 30.08 in    
Wind  
Wind Speed 8 mph (NNW)    
Max Wind Speed 15 mph    
Max Gust Speed -    
Visibility 8 miles    
Events Snow    
Averages and records for this station are not official NWS values.
T = Trace of Precipitation, MM = Missing Value Source: NWS Daily Summary

Daily Weather History Graph

Daily Weather History Graph

Search for Another Location

Airport or City:

Trip Planner

Search our weather history database for the weather conditions in past years. The results will help you decide how hot, cold, wet, or windy it might be!

Date:

Astronomy

Dec. 13, 2012 Rise Set
Actual Time 8:12 AM CST 4:31 PM CST
Civil Twilight 7:35 AM CST 5:08 PM CST
Nautical Twilight 6:55 AM CST 5:48 PM CST
Astronomical Twilight 6:17 AM CST 6:27 PM CST
Moon 8:20 AM CST (12/13) 5:17 PM CST (12/13)
Length of Visible Light 9h 32m
Length of Day
8h 18m
New Moon, 0% of the Moon is Illuminated
Dec 13
New Moon
Dec 19
First Quarter
Dec 28
Full
Jan 4
Last Quarter
Jan 11
New

Hourly Weather History & Observations

Time (CST) Temp. Windchill Dew Point Humidity Pressure Visibility Wind Dir Wind Speed Gust Speed Precip Events Conditions
12:14 AM 6.8 °F -7.8 °F 1.4 °F 79% 30.02 in 10.0 mi NNW 10.4 mph - N/A   Overcast
12:34 AM 6.8 °F -8.6 °F 1.4 °F 79% 30.02 in 10.0 mi NNW 11.5 mph - N/A   Overcast
12:54 AM 6.8 °F -7.8 °F 1.4 °F 79% 30.02 in 10.0 mi NNW 10.4 mph - N/A   Overcast
1:14 AM 6.8 °F -10.7 °F 1.4 °F 79% 30.03 in 10.0 mi NNW 15.0 mph - N/A   Overcast
1:34 AM 5.0 °F -11.6 °F 1.4 °F 85% 30.03 in 10.0 mi NNW 12.7 mph - N/A   Overcast
1:54 AM 5.0 °F -10.0 °F 1.4 °F 85% 30.03 in 10.0 mi North 10.4 mph - N/A   Overcast
2:14 AM 5.0 °F -10.8 °F 1.4 °F 85% 30.05 in 10.0 mi NNW 11.5 mph - N/A   Overcast
2:34 AM 5.0 °F -10.0 °F 1.4 °F 85% 30.06 in 10.0 mi NNW 10.4 mph - N/A   Overcast
2:54 AM 5.0 °F -10.0 °F 1.4 °F 85% 30.07 in 10.0 mi NNW 10.4 mph - N/A   Overcast
3:14 AM 5.0 °F -10.8 °F 1.4 °F 85% 30.08 in 10.0 mi NNW 11.5 mph - N/A   Overcast
3:34 AM 5.0 °F -11.6 °F 1.4 °F 85% 30.07 in 10.0 mi NNW 12.7 mph - N/A   Overcast
3:54 AM 5.0 °F -11.6 °F 1.4 °F 85% 30.08 in 10.0 mi NNW 12.7 mph - N/A   Overcast
4:14 AM 5.0 °F -10.0 °F 1.4 °F 85% 30.08 in 10.0 mi North 10.4 mph - N/A   Overcast
4:34 AM 3.2 °F -14.6 °F -0.4 °F 85% 30.08 in 10.0 mi North 13.8 mph - N/A   Overcast
4:54 AM 3.2 °F -11.3 °F -0.4 °F 85% 30.08 in 10.0 mi North 9.2 mph - N/A   Overcast
5:14 AM 1.4 °F -14.5 °F -2.2 °F 85% 30.08 in 10.0 mi North 10.4 mph - N/A   Mostly Cloudy
5:34 AM 1.4 °F -14.5 °F -2.2 °F 85% 30.09 in 10.0 mi NNW 10.4 mph - N/A   Scattered Clouds
5:54 AM 1.4 °F -11.3 °F -2.2 °F 85% 30.09 in 10.0 mi NNW 6.9 mph - N/A   Clear
6:14 AM -0.4 °F -15.7 °F -4.0 °F 85% 30.09 in 10.0 mi North 9.2 mph - N/A   Clear
6:34 AM 1.4 °F -9.9 °F -2.2 °F 85% 30.10 in 10.0 mi NNW 5.8 mph - N/A   Clear
6:54 AM 1.4 °F -11.3 °F -2.2 °F 85% 30.10 in 10.0 mi NNW 6.9 mph - N/A   Clear
7:14 AM 1.4 °F -9.9 °F -2.2 °F 85% 30.10 in 10.0 mi NNW 5.8 mph - N/A   Mostly Cloudy
7:34 AM 1.4 °F -11.3 °F -2.2 °F 85% 30.12 in 10.0 mi NNW 6.9 mph - N/A   Overcast
7:54 AM 3.2 °F -10.3 °F -0.4 °F 85% 30.12 in 10.0 mi NNW 8.1 mph - N/A   Overcast
8:14 AM 3.2 °F -10.3 °F -0.4 °F 85% 30.11 in 10.0 mi North 8.1 mph - N/A   Overcast
8:34 AM 3.2 °F -7.8 °F -0.4 °F 85% 30.11 in 10.0 mi North 5.8 mph - N/A   Scattered Clouds
8:54 AM 3.2 °F -7.8 °F -0.4 °F 85% 30.11 in 10.0 mi North 5.8 mph - N/A   Clear
9:14 AM 3.2 °F -4.2 °F -0.4 °F 85% 30.12 in 10.0 mi North 3.5 mph - N/A   Clear
9:34 AM 3.2 °F -4.2 °F -0.4 °F 85% 30.12 in 10.0 mi NNW 3.5 mph - N/A   Mostly Cloudy
9:53 AM 3.2 °F - -0.4 °F 85% 30.13 in 7.0 mi Calm Calm - N/A   Scattered Clouds
10:14 AM 3.2 °F - -0.4 °F 85% 30.12 in 7.0 mi Calm Calm - N/A Snow Light Snow
10:34 AM 5.0 °F -2.1 °F -0.4 °F 78% 30.12 in 10.0 mi NW 3.5 mph - N/A   Mostly Cloudy
10:53 AM 5.0 °F - -0.4 °F 78% 30.12 in 10.0 mi Calm Calm - N/A   Mostly Cloudy
11:14 AM 5.0 °F - 1.4 °F 85% 30.13 in 7.0 mi Calm Calm - N/A Snow Light Snow
11:34 AM 6.8 °F - 1.4 °F 79% 30.12 in 5.0 mi Calm Calm - N/A Snow Light Snow
11:53 AM 6.8 °F - 1.4 °F 79% 30.11 in 7.0 mi Calm Calm - N/A Snow Light Snow
12:14 PM 6.8 °F - 1.4 °F 79% 30.11 in 7.0 mi Calm Calm - N/A Snow Light Snow
12:34 PM 6.8 °F - 1.4 °F 79% 30.11 in 7.0 mi Calm Calm - N/A Snow Light Snow
12:53 PM 6.8 °F - 1.4 °F 79% 30.11 in 5.0 mi Calm Calm - N/A Snow Light Snow
1:14 PM 6.8 °F -0.1 °F 1.4 °F 79% 30.12 in 4.0 mi West 3.5 mph - N/A Snow Light Snow
1:34 PM 6.8 °F - 1.4 °F 79% 30.11 in 4.0 mi Calm Calm - N/A Snow Light Snow
1:54 PM 6.8 °F - 3.2 °F 85% 30.10 in 1.8 mi Calm Calm - N/A Snow Light Snow
2:14 PM 6.8 °F - 3.2 °F 85% 30.11 in 3.0 mi Calm Calm - N/A Snow Light Snow
2:34 PM 8.6 °F - 3.2 °F 79% 30.11 in 5.0 mi Calm Calm - N/A Snow Light Snow
2:54 PM 8.6 °F - 3.2 °F 79% 30.09 in 1.8 mi Calm Calm - N/A Snow Light Snow
3:14 PM 8.6 °F - 3.2 °F 79% 30.09 in 2.0 mi Calm Calm - N/A Snow Light Snow
3:34 PM 8.6 °F - 3.2 °F 79% 30.08 in 10.0 mi Calm Calm - N/A   Overcast
3:54 PM 8.6 °F - 3.2 °F 79% 30.09 in 10.0 mi Calm Calm - N/A   Overcast
4:14 PM 8.6 °F - 3.2 °F 79% 30.09 in 10.0 mi Calm Calm - N/A   Overcast
4:34 PM 8.6 °F - 3.2 °F 79% 30.09 in 10.0 mi Calm Calm - N/A   Overcast
5:34 PM 8.6 °F 2.0 °F 5.0 °F 85% 30.08 in 10.0 mi ESE 3.5 mph - N/A   Overcast
6:14 PM 10.4 °F -0.4 °F 6.8 °F 85% 30.07 in 10.0 mi SE 6.9 mph - N/A   Overcast
7:14 PM 10.4 °F -3.3 °F 6.8 °F 85% 30.06 in 10.0 mi SSE 10.4 mph - N/A   Overcast
7:34 PM 12.2 °F -1.8 °F 8.6 °F 85% 30.06 in 10.0 mi South 11.5 mph - N/A   Overcast
7:54 PM 12.2 °F 0.7 °F 8.6 °F 85% 30.07 in 10.0 mi South 8.1 mph - N/A   Overcast
8:14 PM 12.2 °F 1.7 °F 8.6 °F 85% 30.07 in 10.0 mi South 6.9 mph - N/A   Overcast
8:34 PM 12.2 °F -1.0 °F 10.4 °F 92% 30.06 in 10.0 mi South 10.4 mph - N/A   Overcast
8:54 PM 14.0 °F 1.2 °F 10.4 °F 86% 30.06 in 10.0 mi South 10.4 mph - N/A   Overcast
9:14 PM 14.0 °F 0.5 °F 10.4 °F 86% 30.06 in 10.0 mi South 11.5 mph - N/A   Overcast
9:34 PM 14.0 °F 0.5 °F 10.4 °F 86% 30.06 in 5.0 mi South 11.5 mph - N/A   Overcast
9:54 PM 14.0 °F -0.8 °F 10.4 °F 86% 30.06 in 5.0 mi South 13.8 mph - N/A Snow Light Snow
10:14 PM 15.8 °F 1.4 °F 12.2 °F 86% 30.06 in 4.0 mi South 13.8 mph - N/A   Overcast
10:34 PM 15.8 °F 2.1 °F 12.2 °F 86% 30.05 in 5.0 mi South 12.7 mph - N/A Snow Light Snow
10:54 PM 15.8 °F 3.4 °F 12.2 °F 86% 30.06 in 7.0 mi South 10.4 mph - N/A   Overcast
11:14 PM 15.8 °F 4.2 °F 14.0 °F 93% 30.06 in 4.0 mi SSE 9.2 mph - N/A   Overcast
11:33 PM 17.6 °F 6.4 °F 14.0 °F 86% 30.05 in 10.0 mi SSE 9.2 mph - N/A   Overcast
11:54 PM 17.6 °F 5.7 °F 14.0 °F 86% 30.05 in 7.0 mi South 10.4 mph - N/A   Overcast